Regional Weather Roundup
Issued by NWS Northern Indiana

Home | Current Version | Previous Version | Graphics & Text | Print | Product List | Glossary On
Versions: 1 2 3 4 5 6 7 8 9 10 11 12 13 14 15 16 17 18 19 20 21 22 23 24 25 26 27 28 29 30 31 32 33 34 35 36 37 38 39 40 41 42 43 44 45 46 47 48 49 50
000
ASUS43 KIWX 280800
RWRIWX

KIWX WEATHER ROUNDUP
NATIONAL WEATHER SERVICE NORTHERN INDIANA
400 AM EDT WED SEP 28 2016

NOTE: "FAIR" INDICATES FEW OR NO CLOUDS BELOW 12,000 FEET WITH NO
SIGNIFICANT WEATHER AND/OR OBSTRUCTIONS TO VISIBILITY.

* THESE STATIONS ARE NOT UNDER NWS QUALITY CONTROL. THEY ALSO MAY NOT
  REPORT WEATHER SUCH AS PRECIPITATION OR FOG.

INZ001>027-280900-
NORTHERN INDIANA

CITY           SKY/WX    TMP DP  RH WIND       PRES   REMARKS
SOUTH BEND     MOCLDY    51  48  89 E3        29.78F
GOSHEN         PTCLDY    50  42  74 CALM      29.77F
ANGOLA*          N/A     48  37  66 E3        29.79F
FORT WAYNE     CLOUDY    52  44  74 SE3       29.79F
PERU/GRISSOM   PTCLDY    54  46  75 SE7       29.74F

$$
INZ028>050-280900-
CENTRAL INDIANA

CITY           SKY/WX    TMP DP  RH WIND       PRES   REMARKS
LAFAYETTE      CLOUDY    53  47  79 CALM      29.74F
MUNCIE*        CLOUDY    61  50  67 S7        29.78F
INDIANAPOLIS   CLOUDY    60  51  72 SW7       29.77F

$$
MIZ043>046-050>051-056>058-064>065-071>073-077>080-280900-
SOUTHWEST LOWER MICHIGAN

CITY           SKY/WX    TMP DP  RH WIND       PRES   REMARKS
BATTLE CREEK   CLOUDY    54  48  80 E5        29.80F
BENTON HARBOR  CLOUDY    54  49  83 CALM      29.79R
COLDWATER*     CLOUDY    51  46  83 E5        29.79F
HILLSDALE*     PTCLDY    48  45  87 E5        29.80F
HOLLAND        CLOUDY    53  49  86 E3        29.79F
GRAND RAPIDS   CLOUDY    51  48  89 CALM      29.81R
KALAMAZOO      PTCLDY    52  47  83 E5        29.79F
STURGIS*       CLOUDY    52  44  74 E5        29.78S
THREE RIVERS*  FAIR      52  48  86 E3        29.79F

$$
OHZ001>008-015>018-024>025-280900-
NORTHWEST OHIO

CITY           SKY/WX    TMP DP  RH WIND       PRES   REMARKS
DEFIANCE       CLOUDY    52  45  77 CALM      29.80F
FINDLAY        CLOUDY    56  48  74 S7        29.81F
TOLEDO EXPRESS PTCLDY    49  48  97 CALM      29.81S
TOLEDO METCALF MOCLDY    51  46  83 CALM      29.83S
LIMA           PTCLDY    55  50  83 S8        29.81F

$$
AND FOR LAKE MICHIGAN COASTAL AND OPEN LAKE BUOY OBSERVATIONS

STATION/POSITION TEMP    WIND        PRES    VSBY  WAVE
                 AIR SEA DIR/SP/G                  HT/PER
                 (F)     (DEG/KT/KT) (MB)    (MI)  (FT/S)
CALUMET HARBOR    56     340/  9/ 15 1007.9R
MICHIGAN CITY     55      50/ 10/ 11   N/A
BURNS HARBOR      56      80/ 12/ 14 1007.5F
SAINT JOSEPH      56      CALM  /  4 1008.8
SOUTH LAKE BUOY   57 69  270/ 10/ 12 1008.3          2/ 4
4 MI NW BRIDGMAN  58 66   30/  8/ 16 1008.8R         2/ 5
MICHIGAN CITY     58 67  100/ 14/ 17   N/A           2/ 4

$$
&&




USA.gov is the U.S. government's official web portal to all federal, state and local government web resources and services.